Wetbulb
74.12 74.21 74.00 74.32 73.12 73.80 71.53 72.01 71.34 71.89 71.44 70.44 70.03 69.74 69.30 69.68 71.17 71.10 70.12 70.59 70.09 70.15 69.99 69.78 69.84 70.62 70.45 70.37 71.47 70.52 69.04 68.31 66.14 67.29 68.32 66.04 62.41 62.18 61.61 61.79 61.48 60.79 61.52
74.37 74.01 74.37 74.15 73.18 72.47 71.54 72.03 71.93 70.68 70.81 69.98 69.54 70.02 70.17 69.38 68.74 68.48 67.85 67.92 67.42 67.10 66.66 68.13 68.02 69.38 68.99 69.56 70.10 69.53 69.20 68.93 67.22 64.91 66.79 60.98 60.33 61.02 60.36 58.94 59.41 60.16 59.46
73.70 73.54 73.62 73.37 72.74 72.63 71.29 71.93 71.51 70.10 69.96 69.53 69.13 69.38 68.24 67.63 67.43 67.38 66.88 65.23 65.04 64.82 64.90 64.72 64.81 65.77 64.94 65.77 66.73 67.22 67.54 67.71 67.42 65.80 62.21 61.36 59.97 60.01 58.24 58.28 57.40 57.18 59.22
73.40 73.05 73.32 72.58 73.04 72.32 72.52 71.56 71.21 70.80 69.47 69.68 68.98 68.71 68.68 67.96 66.32 66.22 65.90 65.01 64.22 63.27 62.88 62.59 62.84 63.36 64.47 65.14 65.52 65.47 65.62 65.01 63.94 62.14 60.84 60.38 60.13 60.17 59.81 56.48 54.57 56.28 56.10
73.95 72.97 73.76 71.61 72.08 72.55 71.47 71.17 70.78 69.99 68.34 69.18 69.13 68.14 67.53 65.82 62.95 65.04 64.97 64.39 63.78 62.73 62.46 61.94 60.89 61.08 61.25 62.52 63.75 64.16 64.80 63.87 62.52 60.43 59.01 58.62 58.35 58.53 57.98 57.12 54.55 54.33 54.43
73.52 72.55 74.00 72.03 72.43 71.81 71.22 70.06 70.12 68.25 67.92 69.16 68.12 66.66 64.88 62.68 58.49 59.73 64.39 63.99 63.62 63.12 61.96 63.03 62.33 61.07 59.38 59.73 60.30 60.45 62.18 63.90 61.12 59.86 58.89 57.94 57.88 58.27 58.88 56.34 54.82 54.77 52.34
72.99 72.75 71.93 72.98 72.28 71.01 70.88 68.30 68.62 67.54 67.24 67.87 67.09 66.02 63.82 61.70 56.48 57.60 59.60 64.39 63.60 63.68 63.64 62.83 61.59 60.39 61.43 60.54 59.18 58.82 58.00 59.90 61.12 60.62 58.31 58.53 58.00 58.49 58.87 57.08 57.05 56.17 54.09
71.05 70.57 70.70 70.53 71.63 71.84 70.71 69.20 68.61 67.08 65.37 65.09 65.83 65.45 62.51 57.72 55.73 54.45 56.28 63.76 62.81 61.24 60.58 62.33 61.30 58.83 56.44 59.01 55.69 52.64 51.28 52.17 55.48 57.24 56.92 57.41 55.77 59.84 60.25 59.44 58.11 55.92 56.13
67.90 67.82 67.07 65.92 67.33 71.28 67.71 67.06 67.57 66.46 65.92 65.89 65.70 65.12 63.09 58.81 52.93 52.31 58.31 63.27 61.43 60.24 58.31 55.52 60.04 58.25 53.91 54.14 57.85 55.48 53.61 51.19 51.22 52.29 52.79 52.81 53.00 53.71 55.58 58.82 57.25 55.79 54.40
64.23 62.89 63.31 62.85 62.53 67.96 67.95 66.71 66.79 66.56 64.48 64.48 63.17 61.94 58.31 58.00 50.75 50.02 53.74 63.93 61.11 58.34 58.52 56.45 51.93 51.33 50.69 51.18 61.88 60.30 57.87 58.30 57.41 54.58 53.94 53.54 55.92 54.65 56.40 56.90 54.25 53.23 53.99
62.05 61.37 60.64 59.35 59.00 61.59 64.45 64.87 65.63 64.29 63.96 62.22 61.79 60.42 57.70 53.14 53.38 49.02 50.33 58.53 61.49 59.26 56.45 54.77 53.66 48.38 46.58 47.11 51.59 55.55 53.59 55.43 56.34 57.50 56.03 55.61 55.30 53.37 54.16 55.19 54.53 52.98 51.42
59.71 58.14 57.06 56.42 56.48 57.50 58.58 58.59 59.83 62.24 60.80 59.74 58.82 55.63 52.99 52.30 48.83 47.87 47.93 49.80 56.09 56.49 55.00 53.79 51.64 45.49 44.71 45.53 50.42 46.33 47.78 49.79 54.20 55.21 52.81 51.36 51.32 51.81 52.83 54.60 54.91 54.42 54.66
58.00 56.51 55.50 54.81 54.56 54.37 54.87 55.17 54.91 54.79 54.43 53.28 52.14 52.17 50.20 51.54 51.42 47.37 46.18 48.43 51.47 54.98 51.04 47.43 46.31 44.31 44.29 47.63 47.25 48.02 48.58 52.13 54.28 52.88 51.65 51.22 51.08 51.44 54.12 55.14 55.61 55.33 54.90
56.27 55.28 53.85 52.50 51.82 52.15 53.04 52.78 52.72 52.70 51.85 50.62 50.77 50.67 51.04 52.13 52.80 51.92 50.63 48.87 48.83 48.64 49.47 50.01 49.67 50.19 48.67 51.08 49.50 53.21 53.56 51.88 52.08 52.20 51.46 51.82 53.00 52.06 51.12 51.17 52.47 53.19 51.56
57.39 56.09 54.77 53.79 52.41 49.94 47.92 49.20 51.31 50.19 51.52 52.33 52.43 52.70 52.16 51.84 49.82 45.63 46.63 52.81 53.61 50.44 51.48 52.02 48.01 47.19 48.63 53.70 53.68 53.60 53.82 53.89 52.96 52.37 51.62 50.36 49.77 50.45 49.28 50.59 49.64 50.48 48.82
58.60 57.37 56.41 55.38 54.55 53.65 51.70 49.09 44.31 44.14 42.96 42.49 44.05 47.96 46.71 44.21 42.19 41.27 41.42 42.43 43.38 44.40 50.58 50.80 51.02 53.18 53.09 52.91 52.91 52.53 52.14 50.99 52.06 51.38 50.25 49.36 48.50 47.90 47.28 49.80 48.70 47.92 47.08
59.45 58.58 56.96 56.52 55.97 54.69 53.94 52.93 49.44 45.41 41.25 40.37 40.01 39.68 40.78 41.24 40.12 40.01 40.11 40.41 42.89 44.36 49.09 51.17 54.26 53.37 52.77 52.04 51.58 51.49 50.83 50.85 51.42 50.93 49.50 48.50 47.95 48.48 45.83 47.54 48.25 47.73 47.68
61.05 54.18 60.16 59.67 58.62 57.84 57.12 56.44 54.36 52.45 51.20 49.17 41.90 44.19 39.93 40.43 40.72 40.00 39.85 42.23 48.66 46.30 47.72 51.61 53.15 52.90 52.18 51.85 51.27 51.50 51.40 50.32 49.78 49.59 49.17 48.39 47.86 47.61 46.75 46.64 46.56 46.43 44.77
58.55 56.30 56.38 55.72 55.04 55.28 56.52 55.16 53.72 54.90 53.36 51.19 48.86 43.70 41.88 39.93 39.74 39.74 40.57 46.64 49.28 51.12 52.76 52.98 52.84 52.76 51.96 52.23 51.52 51.30 51.11 49.55 47.48 48.88 48.68 48.68 48.70 47.64 46.70 46.85 45.55 43.25 42.21
55.37 54.24 54.70 55.50 54.25 55.45 54.60 53.62 53.14 53.98 54.99 53.50 52.26 50.59 48.71 46.72 47.52 48.62 48.71 50.13 50.96 52.18 52.38 53.08 53.24 52.53 52.27 51.56 51.09 51.08 50.33 49.23 48.93 48.13 48.01 47.60 49.25 47.92 46.37 46.51 46.04 45.17 44.24
53.79 54.38 54.19 55.30 54.98 54.81 54.45 54.18 54.25 54.11 53.30 52.50 52.02 48.09 45.95 50.88 51.07 51.85 51.70 51.56 52.39 53.08 53.65 53.27 51.53 52.24 52.61 52.74 50.92 50.01 49.32 48.75 49.00 49.11 48.79 48.66 49.17 47.07 47.61 47.57 46.43 46.17 45.87
55.72 55.48 56.11 55.44 55.78 56.61 55.34 55.81 55.78 54.84 54.25 53.33 52.07 48.62 43.92 49.60 49.54 50.72 53.60 53.97 54.39 55.04 54.17 54.04 51.70 51.54 50.90 51.32 50.80 49.32 49.36 48.11 47.94 49.08 48.94 48.41 48.22 48.16 47.67 46.57 46.20 45.57 45.55
56.51 56.26 56.07 56.46 57.08 54.76 56.38 56.40 55.06 56.86 55.86 55.84 54.73 49.74 47.91 50.43 50.18 50.94 51.66 52.78 54.96 55.01 54.90 53.92 52.54 51.46 51.15 51.38 52.13 51.70 48.94 48.87 49.34 50.00 49.34 48.54 48.00 47.55 47.20 46.37 45.62 44.63 44.45
57.29 57.40 56.92 54.72 55.21 56.13 56.41 56.55 56.31 51.88 54.98 55.66 55.76 55.26 53.94 53.28 54.13 54.80 54.25 54.90 55.12 55.28 54.98 53.32 52.71 51.56 52.44 53.10 52.33 52.08 50.77 50.63 50.56 49.44 50.16 47.44 46.76 46.37 46.33 46.03 45.55 45.33 44.26
57.79 57.80 57.14 55.78 55.59 55.61 55.97 55.87 55.46 55.06 53.70 55.49 55.13 55.61 54.54 54.61 53.52 54.84 55.60 56.82 56.32 55.47 55.12 55.21 54.66 53.74 53.45 53.37 52.61 52.15 45.59 36.96 46.89 41.51 48.03 47.55 46.26 46.13 46.50 45.72 45.70 45.82 45.21
54.73 55.21 54.79 54.99 54.12 54.89 53.84 54.11 54.21 54.73 53.80 53.38 54.19 53.93 54.65 54.64 54.27 54.18 54.78 55.85 55.15 55.51 53.87 55.24 54.11 52.89 52.21 52.56 50.11 43.96 38.38 34.43 40.46 36.25 48.05 48.09 45.98 44.96 44.98 45.41 45.76 44.79 44.55
MSLP
1012.74 1013.35 1013.83 1013.87 1014.25 1014.53 1014.84 1015.09 1015.42 1015.16 1015.16 1015.16 1015.03 1014.62 1014.44 1014.33 1014.10 1013.93 1014.03 1014.02 1014.08 1014.17 1014.15 1014.07 1014.12 1014.12 1014.09 1014.19 1014.17 1014.23 1014.57 1014.81 1015.15 1015.33 1015.75 1016.51 1016.93 1017.17 1017.46 1017.83 1018.17 1018.35 1018.30
1012.45 1013.28 1013.70 1013.98 1014.38 1014.74 1015.03 1015.35 1015.47 1015.23 1015.45 1015.50 1015.26 1014.98 1014.91 1015.03 1014.97 1014.97 1015.07 1015.10 1015.11 1015.16 1015.13 1014.88 1014.86 1014.82 1014.93 1014.94 1014.79 1014.84 1014.92 1014.99 1015.32 1015.37 1016.26 1017.23 1017.68 1018.00 1018.11 1018.20 1018.32 1018.77 1018.81
1012.47 1013.20 1013.56 1013.92 1014.43 1014.85 1015.11 1015.46 1015.52 1015.51 1015.66 1015.66 1015.58 1015.50 1015.47 1015.72 1015.84 1015.90 1015.98 1016.13 1016.26 1016.25 1016.11 1016.02 1015.96 1015.74 1015.78 1015.69 1015.57 1015.40 1015.48 1015.65 1015.75 1016.03 1016.98 1017.66 1018.23 1018.46 1018.70 1018.83 1018.86 1019.06 1019.31
1012.16 1012.82 1013.42 1013.83 1014.31 1014.84 1015.16 1015.64 1015.73 1015.64 1015.65 1015.75 1015.90 1015.99 1015.96 1016.26 1016.46 1016.59 1016.65 1016.73 1016.92 1017.02 1017.02 1017.04 1016.97 1016.80 1016.59 1016.36 1016.12 1016.01 1015.92 1016.09 1016.39 1016.86 1017.52 1017.99 1018.44 1018.84 1018.95 1019.21 1019.59 1019.80 1019.96
1012.05 1012.61 1013.06 1013.52 1014.27 1014.81 1015.27 1015.73 1016.01 1016.02 1016.04 1016.04 1016.14 1016.28 1016.47 1016.82 1017.14 1017.11 1017.21 1017.23 1017.35 1017.47 1017.57 1017.62 1017.70 1017.66 1017.45 1017.15 1017.01 1016.94 1016.69 1016.76 1017.10 1017.35 1017.91 1018.45 1018.62 1018.73 1018.95 1019.43 1019.96 1020.33 1020.60
1012.21 1012.68 1013.17 1013.55 1014.24 1014.74 1015.19 1015.82 1016.17 1016.31 1016.27 1016.29 1016.62 1016.79 1017.16 1017.64 1017.67 1017.57 1017.55 1017.54 1017.54 1017.57 1017.67 1017.81 1018.09 1018.17 1018.07 1017.92 1017.79 1017.68 1017.45 1017.43 1017.52 1017.91 1018.48 1018.78 1018.98 1019.05 1019.16 1019.65 1020.06 1020.16 1020.57
1012.79 1013.25 1013.46 1013.82 1014.20 1014.52 1015.17 1015.65 1016.20 1016.59 1016.43 1016.70 1017.08 1017.38 1017.69 1017.95 1018.02 1018.03 1017.92 1017.80 1017.75 1017.79 1017.82 1017.95 1018.12 1018.66 1018.53 1018.50 1018.48 1018.46 1018.39 1018.21 1018.24 1018.47 1018.83 1018.97 1019.18 1019.25 1019.24 1019.61 1019.79 1019.95 1020.40
1013.44 1013.88 1014.29 1014.62 1014.52 1014.61 1015.23 1015.66 1016.07 1016.70 1016.83 1017.09 1017.41 1017.70 1018.14 1018.66 1018.50 1018.27 1018.06 1018.03 1018.15 1018.42 1018.48 1018.43 1018.66 1019.05 1019.16 1019.04 1019.29 1019.33 1019.30 1019.21 1019.19 1019.22 1019.38 1019.47 1019.47 1019.23 1019.17 1019.22 1019.45 1019.99 1020.40
1014.02 1014.62 1014.98 1015.38 1015.41 1015.14 1015.42 1015.86 1016.15 1016.70 1017.00 1017.27 1017.54 1017.85 1018.38 1019.03 1019.10 1018.76 1018.39 1018.29 1018.61 1018.99 1019.35 1019.30 1019.25 1019.55 1019.57 1019.43 1019.43 1019.64 1019.85 1020.00 1020.07 1019.85 1019.82 1019.77 1019.65 1019.47 1019.33 1019.17 1019.78 1019.73 1019.87
1015.20 1015.89 1016.23 1016.50 1016.42 1015.80 1015.73 1016.17 1016.49 1016.91 1017.16 1017.55 1017.94 1018.57 1018.77 1019.36 1019.43 1019.11 1018.65 1018.26 1018.51 1019.08 1019.72 1020.12 1020.17 1020.20 1020.00 1019.58 1019.49 1019.52 1019.79 1019.80 1019.78 1019.92 1019.96 1019.82 1019.34 1019.57 1019.42 1019.53 1019.50 1019.32 1019.36
1016.43 1016.82 1017.13 1017.33 1017.22 1016.76 1016.62 1016.78 1016.91 1017.21 1017.53 1018.12 1018.56 1019.30 1019.72 1019.93 1019.93 1019.60 1019.11 1018.95 1018.65 1018.94 1019.54 1020.44 1020.99 1020.93 1020.46 1020.20 1019.99 1020.01 1020.20 1020.12 1019.92 1019.79 1019.64 1019.69 1019.61 1019.78 1020.00 1020.05 1020.03 1019.99 1019.74
1017.33 1017.64 1017.96 1018.12 1018.02 1017.83 1017.73 1017.80 1017.81 1017.84 1018.24 1018.71 1019.33 1019.77 1020.60 1020.81 1020.35 1020.15 1019.92 1019.58 1019.30 1019.74 1020.32 1020.93 1021.28 1021.26 1021.01 1020.65 1020.55 1020.50 1020.35 1020.24 1019.98 1019.63 1019.62 1019.90 1020.12 1020.20 1020.39 1020.34 1020.50 1020.41 1020.25
1017.71 1018.14 1018.55 1018.78 1018.83 1018.80 1018.77 1018.78 1018.86 1019.07 1019.32 1019.79 1020.29 1020.77 1021.32 1021.35 1021.06 1020.97 1020.67 1020.42 1020.24 1020.33 1020.90 1021.23 1021.41 1021.41 1021.20 1020.91 1020.73 1020.59 1020.42 1020.27 1019.76 1019.56 1019.84 1020.13 1020.32 1020.20 1020.20 1020.39 1020.68 1020.53 1020.47
1017.91 1018.41 1018.90 1019.19 1019.54 1019.68 1019.69 1019.84 1019.99 1020.26 1020.54 1020.72 1020.94 1021.31 1021.66 1021.55 1021.54 1021.67 1021.43 1021.31 1021.16 1021.30 1021.29 1021.32 1021.44 1021.41 1021.09 1020.79 1020.69 1020.59 1020.47 1020.30 1020.22 1020.16 1020.21 1020.22 1020.16 1020.13 1020.26 1020.33 1020.50 1020.58 1020.78
1017.71 1018.14 1018.72 1019.34 1019.71 1020.17 1020.60 1020.78 1021.00 1021.35 1021.29 1021.36 1021.54 1021.68 1021.85 1021.86 1022.16 1022.28 1022.04 1021.76 1021.83 1021.76 1021.67 1021.49 1021.47 1021.25 1021.01 1020.40 1020.37 1020.49 1020.56 1020.57 1020.50 1020.53 1020.51 1020.54 1020.37 1020.39 1020.52 1020.72 1020.70 1020.44 1020.36
1017.40 1017.74 1018.36 1018.94 1019.30 1019.74 1020.41 1021.11 1021.88 1022.01 1022.09 1022.03 1021.91 1022.02 1022.31 1022.44 1022.45 1022.46 1022.27 1022.05 1021.98 1022.11 1021.84 1021.31 1020.92 1020.45 1020.18 1020.21 1020.26 1020.38 1020.51 1020.78 1020.85 1020.89 1020.89 1020.88 1020.94 1020.92 1020.95 1020.95 1020.89 1020.82 1020.68
1017.30 1017.74 1018.05 1018.27 1018.70 1019.11 1019.62 1020.17 1021.13 1022.34 1022.44 1022.48 1022.57 1022.64 1022.52 1022.90 1022.79 1022.68 1022.64 1022.55 1022.07 1022.16 1021.66 1020.79 1020.07 1020.13 1020.27 1020.45 1020.59 1020.55 1020.80 1021.08 1021.08 1021.25 1021.24 1021.13 1021.21 1021.09 1021.13 1021.14 1021.00 1020.92 1020.79
1016.91 1017.13 1017.03 1016.98 1017.20 1017.64 1018.25 1018.66 1019.47 1020.29 1021.10 1022.20 1022.72 1022.53 1022.89 1022.91 1022.97 1022.97 1022.86 1022.59 1022.11 1021.83 1021.19 1020.28 1019.98 1020.19 1020.49 1020.67 1020.73 1020.81 1020.89 1021.04 1021.27 1021.32 1021.41 1021.37 1021.28 1021.28 1021.13 1021.00 1020.96 1020.86 1021.04
1016.57 1016.56 1016.66 1016.88 1017.02 1017.22 1017.25 1017.61 1018.09 1018.70 1019.68 1020.78 1021.79 1022.51 1022.77 1022.92 1022.98 1022.95 1022.98 1022.58 1021.61 1020.64 1019.90 1019.65 1019.89 1020.28 1020.59 1020.70 1020.92 1021.11 1021.27 1021.49 1021.52 1021.50 1021.58 1021.58 1021.34 1021.15 1021.08 1020.90 1020.78 1020.82 1021.06
1016.89 1016.97 1016.99 1017.00 1017.00 1016.96 1017.14 1017.44 1018.01 1018.45 1018.76 1019.33 1019.88 1020.73 1021.80 1022.43 1022.32 1022.03 1021.86 1021.38 1020.61 1019.75 1019.56 1019.61 1019.73 1020.04 1020.30 1020.67 1020.96 1021.16 1021.32 1021.37 1021.42 1021.40 1021.43 1021.36 1021.09 1021.08 1021.13 1020.87 1020.60 1020.57 1020.83
1016.95 1017.10 1017.03 1016.59 1016.76 1017.04 1017.34 1017.62 1017.89 1017.92 1018.21 1018.70 1019.31 1019.97 1020.37 1020.57 1020.28 1020.02 1019.83 1019.83 1019.61 1019.42 1019.40 1019.57 1019.78 1019.90 1020.11 1020.33 1020.59 1020.76 1020.94 1020.96 1020.84 1020.85 1020.89 1020.94 1020.76 1020.83 1020.79 1020.62 1020.52 1020.45 1020.36
1016.77 1016.72 1016.41 1016.62 1017.08 1017.25 1017.56 1017.49 1017.56 1017.54 1017.65 1017.88 1018.54 1019.20 1019.43 1019.71 1019.54 1019.26 1018.87 1018.92 1018.95 1019.04 1019.19 1019.62 1019.80 1019.80 1019.75 1019.88 1019.90 1020.23 1020.43 1020.54 1020.56 1020.46 1020.41 1020.41 1020.44 1020.40 1020.39 1020.40 1020.34 1020.26 1020.12
1016.43 1016.38 1016.67 1016.82 1016.96 1017.63 1017.80 1017.53 1017.31 1017.14 1017.20 1017.24 1017.45 1018.45 1019.05 1018.89 1018.94 1018.77 1018.58 1018.43 1018.42 1018.56 1018.79 1019.16 1019.41 1019.60 1019.76 1019.82 1019.66 1019.74 1019.93 1020.06 1020.09 1019.99 1020.00 1019.97 1020.01 1020.06 1020.07 1020.06 1020.04 1019.98 1019.82
1016.36 1016.46 1016.94 1017.36 1017.48 1017.64 1017.50 1017.36 1017.35 1017.43 1017.32 1017.31 1017.39 1017.81 1018.21 1018.06 1018.04 1017.90 1017.87 1017.89 1018.07 1018.25 1018.32 1018.58 1018.88 1019.15 1019.25 1019.34 1019.36 1019.27 1019.27 1019.42 1019.55 1019.65 1019.63 1019.85 1019.91 1019.91 1019.90 1019.73 1019.60 1019.54 1019.49
1016.99 1017.35 1017.58 1017.77 1017.86 1017.78 1017.70 1017.71 1017.80 1017.66 1017.48 1017.45 1017.43 1017.63 1017.96 1017.89 1017.88 1017.90 1017.68 1017.67 1017.89 1018.02 1018.16 1018.16 1018.19 1018.43 1018.61 1018.65 1018.73 1018.83 1019.00 1019.16 1019.14 1019.28 1019.40 1019.61 1019.81 1019.79 1019.60 1019.39 1019.22 1019.09 1018.91
1017.61 1017.85 1017.93 1018.00 1018.14 1018.22 1018.24 1018.22 1018.05 1017.87 1017.85 1017.87 1017.75 1017.82 1017.59 1017.50 1017.42 1017.42 1017.44 1017.50 1018.11 1017.97 1018.22 1018.44 1018.62 1018.64 1019.12 1018.88 1019.02 1019.10 1018.24 1018.43 1018.78 1018.90 1018.92 1019.12 1019.32 1019.40 1019.31 1018.98 1018.75 1018.64 1018.55
Wind_Speed
8 5 5 4 8 5 5 7 5 5 6 7 7 6 9 10 10 9 10 9 9 8 7 6 6 5 2 3 3 2 1 2 2 1 3 5 7 8 8 8 9 9 9
8 6 5 6 7 4 6 5 5 6 6 5 6 7 9 9 10 11 11 10 10 9 9 10 10 7 9 7 4 5 4 4 1 4 2 5 6 5 7 8 7 7 9
8 7 6 8 7 6 5 5 4 5 6 6 7 8 10 10 9 9 9 9 9 9 9 10 10 9 7 6 5 5 5 4 4 4 3 3 3 3 5 6 8 8 6
9 8 5 8 7 6 5 6 4 5 6 7 5 5 8 10 8 7 8 8 8 9 10 10 9 8 7 6 5 5 5 5 6 6 5 4 3 2 2 4 5 5 5
5 5 6 7 9 6 6 7 6 7 6 5 5 7 8 9 8 6 6 7 7 9 9 8 8 10 12 9 4 6 5 5 5 6 4 3 2 2 2 3 3 4 5
6 3 5 7 7 6 7 8 6 5 4 6 5 9 9 7 12 15 7 6 5 5 5 6 6 10 11 12 14 15 10 4 5 4 3 4 4 2 2 3 3 2 2
3 4 5 2 5 5 8 9 8 4 5 6 6 8 7 7 11 12 14 5 5 5 5 4 7 8 5 7 10 13 15 13 12 7 6 4 4 2 3 3 2 3 3
8 6 7 8 4 4 7 8 9 5 5 5 5 7 7 6 12 13 14 6 7 10 9 6 7 8 7 6 9 9 10 10 8 7 6 6 4 3 3 2 4 6 3
6 8 7 9 8 2 9 7 6 7 4 5 5 6 8 7 12 10 8 8 8 8 8 10 7 7 11 10 7 7 6 6 6 8 7 6 6 8 5 3 3 4 3
9 9 8 8 8 4 6 6 5 5 5 6 8 8 11 6 12 11 9 2 7 6 6 6 13 8 10 12 3 4 4 3 5 4 2 2 3 5 10 6 6 4 3
8 7 7 7 7 7 6 5 4 4 6 7 8 8 8 9 9 12 14 7 2 5 6 5 4 9 9 10 10 7 4 5 5 3 3 3 3 6 5 6 7 7 6
8 8 8 7 6 6 8 7 7 5 7 6 5 7 6 5 9 10 11 11 10 7 6 4 2 4 7 9 6 5 7 6 4 5 5 4 5 4 4 4 4 5 4
8 8 8 8 7 7 7 6 6 7 6 5 4 4 3 3 4 10 12 11 9 7 4 5 4 3 5 3 2 6 7 5 4 4 4 4 4 1 3 2 3 3 3
9 9 8 8 8 7 6 6 5 5 4 4 4 3 2 2 4 3 3 4 8 6 4 1 3 6 6 2 2 4 3 4 4 4 4 2 1 2 3 2 2 4 4
9 9 8 7 8 8 7 5 5 4 2 3 2 2 2 3 2 2 3 2 1 2 1 1 2 3 5 4 2 2 2 2 2 3 3 3 3 1 2 2 3 4 1
7 7 6 6 6 7 7 7 11 8 9 9 8 4 2 6 4 1 4 5 6 6 3 4 6 4 2 3 2 2 4 1 4 4 3 4 3 3 3 3 2 3 2
7 7 7 7 7 7 6 7 7 5 7 8 7 7 6 5 3 3 6 8 4 2 5 7 1 3 3 3 3 3 5 4 3 3 3 2 3 2 1 4 2 2 2
5 4 5 5 6 8 8 8 8 9 8 5 2 2 4 3 2 4 5 6 5 4 6 6 4 4 3 3 4 4 2 3 3 1 2 3 3 3 3 3 2 1 4
5 4 5 5 5 3 3 4 5 5 8 7 6 4 5 2 1 3 3 4 7 8 4 2 4 3 1 1 2 4 4 3 2 3 3 4 4 2 4 3 1 2 1
6 7 6 5 5 4 4 5 6 4 3 5 7 8 7 5 5 6 6 7 7 4 4 1 1 4 2 3 2 1 3 2 4 3 4 5 3 1 4 5 3 3 4
6 4 4 4 5 5 4 5 3 2 3 3 7 6 11 6 5 6 7 8 6 3 3 4 4 3 3 4 4 3 3 4 4 4 4 4 4 3 3 4 3 4 4
5 5 5 6 4 2 3 0 3 2 2 2 8 6 11 5 4 7 3 2 2 0 1 1 3 4 5 3 4 4 4 3 4 4 4 4 3 3 4 4 4 4 5
5 4 3 4 1 4 3 5 3 3 3 1 2 8 7 5 6 6 5 4 2 1 2 1 1 2 3 4 3 4 4 4 4 4 3 2 3 4 4 4 4 5 5
2 3 5 4 4 4 3 6 6 4 5 6 3 4 1 2 4 3 3 3 2 3 3 4 4 6 5 3 3 3 4 5 4 4 2 3 4 5 5 5 5 7 7
5 5 3 3 2 2 4 6 5 4 4 2 5 1 3 3 4 6 5 2 2 2 4 4 2 5 7 8 7 8 3 5 4 1 2 3 5 8 7 6 7 6 6
3 4 3 2 6 7 7 6 5 4 5 7 5 3 3 3 4 5 4 4 3 1 2 2 4 10 21 11 13 20 9 11 8 10 6 5 5 7 8 9 10 8 9
Wind_Direction
157 140 170 163 105 60 86 79 59 48 41 36 17 21 33 22 33 37 45 34 48 41 29 33 28 1 345 352 352 325 229 202 233 126 78 58 47 65 69 72 64 58 54
127 144 157 132 104 80 106 87 74 57 48 53 29 33 49 46 40 41 40 37 38 42 35 42 31 40 37 27 34 36 18 360 316 254 91 56 60 50 73 71 61 65 62
138 164 190 134 118 106 99 100 74 91 75 57 39 45 60 52 42 47 61 58 48 39 41 42 32 41 48 37 34 38 48 44 41 39 66 67 83 59 69 66 70 60 59
177 166 163 121 128 113 111 120 85 73 74 70 48 68 70 66 53 55 57 65 62 56 51 44 40 31 36 44 47 59 72 72 72 79 75 70 75 81 69 79 62 46 57
156 184 154 120 127 132 126 96 82 66 77 75 76 63 68 61 44 38 71 67 73 67 65 64 52 53 52 44 42 33 53 71 66 81 72 66 68 98 76 86 93 83 50
173 131 152 126 137 147 130 123 107 93 88 84 81 72 71 62 17 26 35 84 63 78 81 90 115 76 59 61 62 55 45 81 97 98 111 95 69 57 114 106 137 182 116
96 13 43 271 173 172 143 134 122 114 106 98 60 79 81 77 33 21 12 91 80 73 61 93 82 50 63 83 54 44 38 42 61 75 77 66 91 38 111 145 121 80 102
66 47 23 4 321 199 137 137 123 132 125 114 106 96 93 59 36 21 351 85 71 53 33 64 80 60 26 65 78 65 53 46 39 60 56 57 50 33 109 132 131 112 113
58 55 29 15 345 304 127 137 136 138 136 126 111 96 98 67 28 19 13 99 80 76 59 32 54 42 359 2 109 112 109 105 69 84 106 114 85 60 15 190 193 203 142
49 42 27 5 343 325 126 134 131 135 127 105 85 73 66 59 26 13 7 142 130 118 103 73 50 30 7 12 119 109 79 109 124 158 188 236 156 74 40 39 4 349 115
59 56 44 25 11 17 58 59 115 130 97 108 98 82 72 34 43 15 20 44 356 92 89 75 39 6 21 18 47 44 46 345 331 301 176 187 121 72 57 29 13 37 22
82 73 59 44 30 34 52 46 44 83 95 85 93 82 47 25 32 32 36 44 42 73 78 86 88 27 47 33 61 12 358 334 280 251 79 57 43 77 76 75 61 52 68
88 83 74 63 49 41 45 50 59 56 75 73 86 84 72 14 39 32 41 37 51 86 84 93 86 350 326 53 327 301 314 284 267 69 79 88 111 160 136 144 138 140 74
105 101 88 76 71 58 57 48 57 60 67 80 94 105 134 95 72 45 44 61 60 65 107 152 263 275 254 164 297 284 20 7 4 32 52 49 113 77 49 359 193 198 156
113 106 102 98 94 83 61 44 64 50 45 115 110 117 140 114 94 19 354 65 141 54 309 3 299 261 254 199 125 27 133 321 35 27 19 8 32 40 93 358 335 309 54
134 118 118 121 117 110 106 89 55 60 50 62 65 78 57 65 105 18 18 33 58 38 271 254 247 232 13 37 40 162 138 191 35 18 15 11 2 29 25 343 319 327 1
111 137 135 138 132 132 133 129 119 76 68 69 71 65 63 114 78 32 13 349 287 307 264 278 37 65 39 33 351 360 56 59 37 330 6 18 351 39 315 283 293 265 286
150 200 174 149 156 158 164 160 149 155 130 115 118 142 90 81 31 25 10 327 273 229 249 272 63 70 39 23 6 7 31 126 230 328 356 350 330 315 316 289 254 326 25
184 112 93 70 63 65 85 67 79 85 117 128 140 187 159 152 201 269 303 280 293 292 200 78 111 68 38 316 37 35 23 36 355 29 348 280 280 293 298 252 179 110 119
73 70 133 155 169 128 108 106 120 134 174 153 185 143 153 167 206 210 204 236 268 300 343 37 160 155 144 119 100 301 273 233 245 238 247 268 241 271 287 309 298 203 201
131 169 257 146 90 83 83 76 57 75 101 64 109 108 154 207 266 223 203 202 228 272 348 23 346 360 156 171 181 197 244 250 256 219 220 256 222 242 276 295 268 288 252
135 196 196 98 138 173 23 209 194 173 188 155 145 160 162 210 242 296 308 238 266 292 115 180 285 309 336 333 179 184 223 251 276 266 246 234 280 278 234 241 264 277 267
177 157 121 160 28 102 229 255 335 357 353 285 161 154 180 200 209 233 257 261 232 205 167 138 254 282 293 281 238 202 226 240 257 286 314 287 252 248 250 247 257 263 267
272 75 63 83 62 325 21 347 46 355 331 322 9 52 232 220 241 264 238 220 221 271 236 181 195 233 254 279 305 256 219 216 227 257 4 14 327 303 296 272 266 280 291
28 56 46 29 338 278 3 3 346 321 334 284 298 345 288 254 226 252 258 231 354 313 328 316 222 228 251 241 244 256 162 190 223 161 170 252 270 280 274 278 288 290 270
30 60 65 38 26 31 17 9 343 9 27 354 15 236 312 322 317 331 353 39 356 15 81 4 17 17 360 322 359 335 236 189 207 210 211 217 245 260 269 261 255 260 258